Overview Statistics Trail Chart Weather Telemetry Raw packets
 

This is the latest recevied weather packets stored in our database for station/object NY5V. If no packets are shown the sender has not sent any weather packets the latest 10 day(s).

<< 1 2 3 4 >>
Time Temp. Humidity Pressure Rain* Wind** Luminosity Snow
1788664436 24.44° C 97% 1013.2 hPa 0 mm - 0 W/m² -
1788663832 24.44° C 96% 1013.2 hPa 0 mm - 0 W/m² -
1788663232 25° C 96% 1013.3 hPa 0 mm - 0 W/m² -
1788662630 25° C 96% 1013.3 hPa 0 mm - 0 W/m² -
1788662028 25° C 96% 1013.2 hPa 0 mm - 0 W/m² -
1788661423 25° C 97% 1013.3 hPa 0 mm - 0 W/m² -
1788660818 25° C 97% 1013.1 hPa 0 mm - 0 W/m² -
1788660218 25° C 97% 1013.1 hPa 0 mm - 0 W/m² -
1788659618 25.56° C 97% 1013.3 hPa 0 mm - 0 W/m² -
1788659013 25.56° C 97% 1013.3 hPa 0 mm - 0 W/m² -
1788658411 25.56° C 97% 1013.1 hPa 0 mm - 0 W/m² -
1788657806 25.56° C 97% 1013.1 hPa 0 mm - 0 W/m² -
1788657201 25.56° C 97% 1013.3 hPa 0 mm - 0 W/m² -
1788656599 25.56° C 97% 1013.5 hPa 0 mm - 0 W/m² -
1788655999 25.56° C 97% 1013 hPa 0 mm - 0 W/m² -
1788655398 25.56° C 96% 1012.6 hPa 0 mm - 1 W/m² -
1788654795 26.11° C 96% 1012.9 hPa 0 mm - 5 W/m² -
1788654195 26.11° C 96% 1013 hPa 0 mm - 7 W/m² -
1788653592 26.67° C 95% 1013 hPa 0 mm - 8 W/m² -
1788652987 26.67° C 94% 1013 hPa 0 mm - 12 W/m² -
1788652382 26.67° C 93% 1013.1 hPa 0 mm - 15 W/m² -
1788651779 26.67° C 92% 1013 hPa 0 mm - 20 W/m² -
1788651173 26.67° C 91% 1012.9 hPa 0 mm - 21 W/m² -
1788650569 26.67° C 92% 1013 hPa 0 mm - 18 W/m² -
1788649966 26.67° C 94% 1012.8 hPa 0 mm - 19 W/m² -

* Rain latest hour (hover to see other rain measurements)
** Current wind speed in m/s (hover to see current wind gust speed)